Home > Weather > Wolverhampton > Past weeks

Flag for United Kingdom Weather for the Past 2 Weeks in Wolverhampton, England, United Kingdom

Now
43 °F

Scattered clouds.


Feels Like: 37 °F
Forecast: 32 / 42 °F
Wind: 9 mph from Southeast

Location: Birmingham / Airport

Current Time: Feb 12, 2016 at 12:37:26 PM

Latest Report: Feb 12, 2016 at 11:50 AM


Visibility: N/A

Pressure: 29.36 "Hg

Humidity: 87%

Dew point: 39 °F

Location of WolverhamptonLocation

Historic Weather in Wolverhampton — Graph

°F

Wolverhampton Temperature Yesterday

Maximum temperature yesterday: 45 °F (at 12:20 PM)
Minimum temperature yesterday: 30 °F (at 4:50 AM)
Average temperature yesterday: 37 °F

High & Low Weather Summary for the Past Weeks

 TemperatureHumidityPressure
High57 °F (Jan 31, 8:20 PM)100% (Jan 28, 10:20 PM)30.33 "Hg (Jan 28, 10:20 PM)
Low30 °F (Feb 11, 4:50 AM)53% (Feb 2, 12:20 PM)28.82 "Hg (Feb 8, 8:20 AM)
Average44 °F85%29.64 "Hg
* Reported Jan 28 11:20 AM — Feb 12 11:20 AM, Wolverhampton, Weather by CustomWeather, © 2016

Note: Actual official high and low records may vary slightly from our data, if they occured in-between our weather recording intervals... More about our weather records

Advertising

Wolverhampton Weather History for the Previous 24 Hours

 ConditionsComfort  
Time TempWeatherWind HumidityBarometerVisibility
11:20 AM
Fri, Feb 12
41 °FScattered clouds.10 mph93%29.36 "HgN/A
10:50 AM41 °FScattered clouds.9 mph93%29.36 "HgN/A
10:20 AM39 °FPassing clouds.8 mph100%29.36 "HgN/A
9:50 AM39 °FPassing clouds.7 mph93%29.36 "HgN/A
9:20 AM37 °FPassing clouds.6 mph100%29.36 "Hg6 mi
8:50 AM36 °FPassing clouds.5 mph100%29.36 "Hg5 mi
8:20 AM36 °FScattered clouds.5 mph100%29.36 "Hg5 mi
7:50 AM36 °FScattered clouds.8 mph100%29.36 "Hg4 mi
7:20 AM34 °FPassing clouds.7 mph100%29.36 "Hg4 mi
6:50 AM34 °FFog.6 mph100%29.36 "Hg3 mi
6:20 AM34 °FFog.7 mph100%29.39 "Hg3 mi
5:20 AM34 °FFog.7 mph100%29.39 "Hg2 mi
4:50 AM32 °FIce fog.6 mph100%29.39 "Hg3 mi
4:20 AM32 °FClear.5 mph100%29.39 "Hg10 mi
3:50 AM32 °FClear.6 mph100%29.42 "Hg10 mi
3:20 AM32 °FClear.5 mph100%29.42 "Hg4 mi
2:50 AM34 °FPassing clouds.5 mph100%29.42 "Hg4 mi
2:20 AM34 °FPassing clouds.6 mph100%29.45 "HgN/A
1:50 AM32 °FClear.5 mph100%29.45 "Hg10 mi
1:20 AM34 °FClear.5 mph100%29.45 "Hg10 mi
12:50 AM34 °FClear.6 mph100%29.45 "Hg10 mi
12:20 AM34 °FClear.7 mph100%29.47 "HgN/A
11:50 PM
Thu, Feb 11
34 °FPassing clouds.6 mph100%29.47 "HgN/A
11:20 PM34 °FPassing clouds.6 mph100%29.47 "HgN/A
10:50 PM36 °FPartly cloudy.5 mph93%29.47 "HgN/A
9:50 PM36 °FPassing clouds.6 mph93%29.50 "HgN/A
9:20 PM36 °FPassing clouds.5 mph93%29.53 "HgN/A
8:50 PM36 °FPartly cloudy.5 mph93%29.53 "HgN/A
8:20 PM36 °FPartly cloudy.5 mph93%29.53 "HgN/A
7:50 PM37 °FPassing clouds.5 mph87%29.53 "HgN/A
7:20 PM37 °FPassing clouds.5 mph81%29.56 "HgN/A
6:50 PM39 °FPassing clouds.5 mph75%29.56 "HgN/A
6:20 PM39 °FPassing clouds.3 mph75%29.56 "HgN/A
5:50 PM39 °FPassing clouds.3 mph75%29.56 "HgN/A
5:20 PM41 °FPartly cloudy.2 mph70%29.56 "HgN/A
4:50 PM41 °FPassing clouds.5 mph70%29.56 "HgN/A
4:20 PM43 °FSunny.5 mph66%29.56 "Hg10 mi
3:50 PM45 °FPassing clouds.7 mph61%29.56 "HgN/A
3:20 PM45 °FPassing clouds.6 mph61%29.59 "HgN/A
2:50 PM45 °FPassing clouds.7 mph61%29.59 "HgN/A
2:20 PM45 °FPassing clouds.8 mph66%29.59 "HgN/A
1:50 PM45 °FPassing clouds.7 mph66%29.59 "HgN/A
1:20 PM45 °FPassing clouds.7 mph66%29.59 "HgN/A
12:50 PM45 °FSunny.7 mph66%29.62 "Hg10 mi
12:20 PM45 °FPassing clouds.6 mph66%29.62 "HgN/A
Weather by CustomWeather, © 2016

See weather overviewHow to use our weather pages